Torna al catalogo

STARLINK-35005

AttivoComunicazioniSSO
NORAD 65456·PAYLOAD·🇺🇸 United States

Lanciato Sep 3, 2025 da Vandenberg Space Force Base

Loading…

Prossimi Passaggi (prossime 24 ore)

TLE

AggiornatoSource: CelesTrak SupGP

Epoca: Sep 14, 2026, 20:46 UTC

1 65456C 25194Y   26257.86576389  .00036533  00000+0  11346-2 0  2574
2 65456  97.2844 107.5676 0001806  90.7738 232.3974 15.33406283    19

Traccia STARLINK-35005 in tempo reale con AllMySat

Download on the App Store